User: anonymous   Login
Location: Unspecified
(0.0000°N, 0.0000°E)
Time: 10:33:43
(UTC+00:00)
Language:

NOSS 3-3 (C) - Orbit

View from above orbital plane
View from above orbital plane
View from above satellite
View from above satellite

Ground track
Ground track

The orbit data is extracted from the following two-line orbital elements,

1 28541U 05004C   18229.89168674 0.00000040  00000-0  55400-4 0    05
2 28541  63.4301 180.7171 0302673 357.4514   2.5486 13.40756902    06
Epoch (UTC): 17 August 2018 21:24:01
Eccentricity: 0.0302673
inclination: 63.4301°
perigee height: 880 km
apogee height: 1333 km
right ascension of ascending node: 180.7171°
argument of perigee: 357.4514°
revolutions per day: 13.40756902
mean anomaly at epoch: 2.5486°
orbit number at epoch: 0

The dashed part of the orbit path shows where the satellite is in the earth's shadow,  

DLR